Location: Les Thiberg�res
(47.8554°N, 1.0978°W)
Time: 15:17:03
(UTC+00:00)

Cosmos 614 Rocket - Pass Details

Date: 17 February 2020
Orbit: 732 x 764 km, 74.1° (Epoch: 27 March)

Event Time Altitude Azimuth Distance (km) Brightness Sun altitude
Rises 05:19:28 0° 192° (SSW) 3,173 7.1 -18.9°
Reaches altitude 10° 05:21:49 10° 189° (S) 2,258 6.3 -18.5°
Maximum altitude 05:26:53 66° 108° (ESE) 824 4.3 -17.6°
Drops below altitude 10° 05:32:02 10° 28° (NNE) 2,296 6.8 -16.7°
Sets 05:34:26 0° 25° (NNE) 3,229 7.6 -16.3°
